Station Historical Data
Daily Summary for October 15, 2017 Units:  Metric    English   Both
« Previous Day
Next Day »
Daily Weekly Monthly Yearly Custom
  High: Low: Average:
Temperature: 26.8 °C 17 °C 20.7 °C
Dew Point: 21.8 °C 15.8 °C 18.5 °C
Humidity: 94% 71% 88%
Wind Speed: 16.1km/h 1.6km/h 6.4km/h
Wind Gust: 16.1km/h - -
Wind- - SSE
Pressure: 1022.9 hPa 1017.2 hPa -
Precipitation: 0 mm    
Historical Graphs
 
 
Tabular Data for October 15, 2017
Time Temperature Dew Point Pressure Wind Wind Speed Wind Gust Humidity Rainfall Rate (Hourly) solar Conditions
00:00 17.4 °C 16.1 °C 1021.9 hPa NNE 4.8 km/h 4.8 km/h 92% 0 mm WeatherDisplay:10.37 W/m2 CLR
00:05 17.4 °C 16.1 °C 1021.9 hPa NNE 4.8 km/h 4.8 km/h 92% 0 mm WeatherDisplay:10.37 W/m2 CLR
00:10 17.3 °C 16 °C 1021.9 hPa NNE 4.8 km/h 4.8 km/h 92% 0 mm WeatherDisplay:10.37 W/m2 CLR
00:15 17.3 °C 16.2 °C 1022.2 hPa East 4.8 km/h 4.8 km/h 93% 0 mm WeatherDisplay:10.37 W/m2 CLR
00:20 17.3 °C 16 °C 1022.2 hPa ESE 4.8 km/h 4.8 km/h 92% 0 mm WeatherDisplay:10.37 W/m2 CLR
00:25 17.3 °C 16.1 °C 1022.2 hPa ESE 4.8 km/h 4.8 km/h 93% 0 mm WeatherDisplay:10.37 W/m2 CLR
00:30 17.2 °C 15.9 °C 1022.2 hPa ESE 4.8 km/h 4.8 km/h 92% 0 mm WeatherDisplay:10.37 W/m2 CLR
00:35 17.2 °C 16.1 °C 1022.2 hPa ESE 4.8 km/h 4.8 km/h 93% 0 mm WeatherDisplay:10.37 W/m2 CLR
00:40 17.2 °C 16.1 °C 1022.2 hPa ESE 4.8 km/h 4.8 km/h 93% 0 mm WeatherDisplay:10.37 W/m2 CLR
00:45 17.2 °C 16.1 °C 1021.9 hPa ESE 4.8 km/h 4.8 km/h 93% 0 mm WeatherDisplay:10.37 W/m2 CLR
00:50 17.2 °C 16.1 °C 1021.9 hPa ESE 4.8 km/h 4.8 km/h 93% 0 mm WeatherDisplay:10.37 W/m2 CLR
00:55 17.3 °C 16.1 °C 1021.9 hPa ESE 4.8 km/h 4.8 km/h 93% 0 mm WeatherDisplay:10.37 W/m2 CLR
01:00 17.3 °C 16.1 °C 1022.2 hPa ESE 4.8 km/h 4.8 km/h 93% 0 mm WeatherDisplay:10.37 W/m2 CLR
01:05 17.3 °C 16.1 °C 1021.9 hPa ESE 4.8 km/h 4.8 km/h 93% 0 mm WeatherDisplay:10.37 W/m2 CLR
01:10 17.3 °C 16.1 °C 1022.2 hPa ESE 4.8 km/h 4.8 km/h 93% 0 mm WeatherDisplay:10.37 W/m2 CLR
01:15 17.2 °C 16.1 °C 1022.2 hPa ESE 4.8 km/h 4.8 km/h 93% 0 mm WeatherDisplay:10.37 W/m2 FEW
01:20 17.2 °C 16 °C 1022.2 hPa ESE 4.8 km/h 4.8 km/h 93% 0 mm WeatherDisplay:10.37 W/m2 FEW
01:25 17.1 °C 15.9 °C 1022.2 hPa ESE 4.8 km/h 4.8 km/h 93% 0 mm WeatherDisplay:10.37 W/m2 FEW
01:30 17.1 °C 15.9 °C 1021.9 hPa ESE 4.8 km/h 4.8 km/h 93% 0 mm WeatherDisplay:10.37 W/m2 FEW
01:35 17.1 °C 15.9 °C 1021.9 hPa ESE 4.8 km/h 4.8 km/h 93% 0 mm WeatherDisplay:10.37 W/m2 FEW
01:40 17.1 °C 15.9 °C 1021.9 hPa ESE 4.8 km/h 4.8 km/h 93% 0 mm WeatherDisplay:10.37 W/m2 FEW
01:45 17.1 °C 15.9 °C 1021.9 hPa ESE 4.8 km/h 4.8 km/h 93% 0 mm WeatherDisplay:10.37 W/m2 FEW
01:50 17.1 °C 15.9 °C 1021.9 hPa ESE 4.8 km/h 4.8 km/h 93% 0 mm WeatherDisplay:10.37 W/m2 FEW
01:55 17.1 °C 15.9 °C 1021.9 hPa ESE 4.8 km/h 4.8 km/h 93% 0 mm WeatherDisplay:10.37 W/m2 FEW
02:00 17.2 °C 16.1 °C 1021.9 hPa ESE 4.8 km/h 4.8 km/h 93% 0 mm WeatherDisplay:10.37 W/m2 FEW
02:05 17.3 °C 16.2 °C 1021.6 hPa ESE 4.8 km/h 4.8 km/h 93% 0 mm WeatherDisplay:10.37 W/m2 FEW
02:10 17.4 °C 16.2 °C 1021.9 hPa ESE 4.8 km/h 4.8 km/h 93% 0 mm WeatherDisplay:10.37 W/m2 FEW
02:15 17.4 °C 16.2 °C 1021.9 hPa ESE 1.6 km/h 4.8 km/h 93% 0 mm WeatherDisplay:10.37 W/m2 BKN
02:20 17.3 °C 16.2 °C 1021.9 hPa East 1.6 km/h 1.6 km/h 93% 0 mm WeatherDisplay:10.37 W/m2 BKN
02:25 17.3 °C 16.2 °C 1021.6 hPa East 4.8 km/h 4.8 km/h 93% 0 mm WeatherDisplay:10.37 W/m2 SCT
02:30 17.3 °C 16.2 °C 1021.6 hPa East 4.8 km/h 4.8 km/h 93% 0 mm WeatherDisplay:10.37 W/m2 SCT
02:35 17.3 °C 16.2 °C 1021.6 hPa East 4.8 km/h 4.8 km/h 93% 0 mm WeatherDisplay:10.37 W/m2 SCT
02:40 17.3 °C 16.1 °C 1021.6 hPa East 4.8 km/h 4.8 km/h 93% 0 mm WeatherDisplay:10.37 W/m2 SCT
02:45 17.3 °C 16.2 °C 1021.6 hPa East 4.8 km/h 4.8 km/h 93% 0 mm WeatherDisplay:10.37 W/m2 SCT
02:50 17.3 °C 16.2 °C 1021.6 hPa East 4.8 km/h 4.8 km/h 93% 0 mm WeatherDisplay:10.37 W/m2 SCT
02:55 17.3 °C 16.1 °C 1021.6 hPa East 4.8 km/h 4.8 km/h 93% 0 mm WeatherDisplay:10.37 W/m2 SCT
03:00 17.3 °C 16.1 °C 1021.6 hPa East 4.8 km/h 4.8 km/h 93% 0 mm WeatherDisplay:10.37 W/m2 SCT
03:05 17.3 °C 16.1 °C 1021.6 hPa East 4.8 km/h 4.8 km/h 93% 0 mm WeatherDisplay:10.37 W/m2 SCT
03:10 17.2 °C 16.1 °C 1021.6 hPa East 4.8 km/h 4.8 km/h 93% 0 mm WeatherDisplay:10.37 W/m2 SCT
03:15 17.2 °C 16.1 °C 1021.6 hPa ENE 1.6 km/h 4.8 km/h 93% 0 mm WeatherDisplay:10.37 W/m2 SCT
03:20 17.2 °C 16.1 °C 1021.6 hPa NNE 1.6 km/h 1.6 km/h 93% 0 mm WeatherDisplay:10.37 W/m2 SCT
03:30 17.2 °C 16 °C 1021.2 hPa NNE 1.6 km/h 1.6 km/h 93% 0 mm WeatherDisplay:10.37 W/m2 SCT
03:35 17.2 °C 16 °C 1021.2 hPa NNE 1.6 km/h 1.6 km/h 93% 0 mm WeatherDisplay:10.37 W/m2 SCT
03:40 17.1 °C 15.9 °C 1021.6 hPa NNE 1.6 km/h 1.6 km/h 93% 0 mm WeatherDisplay:10.37 W/m2 SCT
03:45 17 °C 15.9 °C 1021.2 hPa NNE 1.6 km/h 1.6 km/h 93% 0 mm WeatherDisplay:10.37 W/m2 SCT
03:50 17 °C 15.8 °C 1021.2 hPa NNE 1.6 km/h 1.6 km/h 93% 0 mm WeatherDisplay:10.37 W/m2 SCT
03:55 17.1 °C 15.9 °C 1021.6 hPa NNE 1.6 km/h 1.6 km/h 93% 0 mm WeatherDisplay:10.37 W/m2 SCT
04:00 17.1 °C 16.1 °C 1021.2 hPa NNE 1.6 km/h 1.6 km/h 94% 0 mm WeatherDisplay:10.37 W/m2 SCT
04:05 17.2 °C 16.2 °C 1021.2 hPa NNE 1.6 km/h 1.6 km/h 94% 0 mm WeatherDisplay:10.37 W/m2 SCT
04:10 17.2 °C 16.2 °C 1021.2 hPa NNE 1.6 km/h 1.6 km/h 94% 0 mm WeatherDisplay:10.37 W/m2 SCT
04:15 17.3 °C 16.3 °C 1021.2 hPa NNE 1.6 km/h 1.6 km/h 94% 0 mm WeatherDisplay:10.37 W/m2 SCT
04:20 17.4 °C 16.4 °C 1021.2 hPa NNE 1.6 km/h 1.6 km/h 94% 0 mm WeatherDisplay:10.37 W/m2 SCT
04:25 17.3 °C 16.3 °C 1021.2 hPa NNE 1.6 km/h 1.6 km/h 94% 0 mm WeatherDisplay:10.37 W/m2 SCT
04:30 17.4 °C 16.4 °C 1021.2 hPa NNE 1.6 km/h 1.6 km/h 94% 0 mm WeatherDisplay:10.37 W/m2 SCT
04:35 17.4 °C 16.4 °C 1021.2 hPa NNE 1.6 km/h 1.6 km/h 94% 0 mm WeatherDisplay:10.37 W/m2 SCT
04:40 17.4 °C 16.4 °C 1021.2 hPa NNE 1.6 km/h 1.6 km/h 94% 0 mm WeatherDisplay:10.37 W/m2 SCT
04:50 17.5 °C 16.5 °C 1021.2 hPa NNE 1.6 km/h 1.6 km/h 94% 0 mm WeatherDisplay:10.37 W/m2 SCT
04:55 17.5 °C 16.5 °C 1021.2 hPa NNE 1.6 km/h 1.6 km/h 94% 0 mm WeatherDisplay:10.37 W/m2 BKN
05:00 17.5 °C 16.5 °C 1021.2 hPa NNE 1.6 km/h 1.6 km/h 94% 0 mm WeatherDisplay:10.37 W/m2 BKN
05:05 17.5 °C 16.5 °C 1021.2 hPa NNE 1.6 km/h 1.6 km/h 94% 0 mm WeatherDisplay:10.37 W/m2 BKN
05:10 17.4 °C 16.4 °C 1021.2 hPa NNE 1.6 km/h 1.6 km/h 94% 0 mm WeatherDisplay:10.37 W/m2 BKN
05:20 17.4 °C 16.4 °C 1021.2 hPa NNE 1.6 km/h 1.6 km/h 94% 0 mm WeatherDisplay:10.37 W/m2 BKN
05:25 17.4 °C 16.4 °C 1021.2 hPa NNE 1.6 km/h 1.6 km/h 94% 0 mm WeatherDisplay:10.37 W/m2 BKN
05:30 17.4 °C 16.4 °C 1021.2 hPa NNE 1.6 km/h 1.6 km/h 94% 0 mm WeatherDisplay:10.37 W/m2 BKN
05:40 17.4 °C 16.4 °C 1021.6 hPa NNE 1.6 km/h 1.6 km/h 94% 0 mm WeatherDisplay:10.37 W/m2 BKN
05:45 17.4 °C 16.4 °C 1021.6 hPa NNE 1.6 km/h 1.6 km/h 94% 0 mm WeatherDisplay:10.37 W/m2 BKN
05:50 17.3 °C 16.3 °C 1021.6 hPa NNE 1.6 km/h 1.6 km/h 94% 0 mm WeatherDisplay:10.37 W/m2 BKN
05:55 17.4 °C 16.4 °C 1021.6 hPa NNE 1.6 km/h 1.6 km/h 94% 0 mm WeatherDisplay:10.37 W/m2 BKN
06:00 17.3 °C 16.3 °C 1021.6 hPa NNE 1.6 km/h 1.6 km/h 94% 0 mm WeatherDisplay:10.37 W/m2 BKN
06:05 17.3 °C 16.3 °C 1021.6 hPa NNE 1.6 km/h 1.6 km/h 94% 0 mm WeatherDisplay:10.37 W/m2 BKN
06:10 17.3 °C 16.3 °C 1021.6 hPa NNE 1.6 km/h 1.6 km/h 94% 0 mm WeatherDisplay:10.37 W/m2 BKN
06:15 17.4 °C 16.4 °C 1021.6 hPa NNE 1.6 km/h 1.6 km/h 94% 0 mm WeatherDisplay:10.37 W/m2 OVC
06:20 17.4 °C 16.4 °C 1021.6 hPa NNE 1.6 km/h 1.6 km/h 94% 0 mm WeatherDisplay:10.37 W/m2 OVC
06:25 17.4 °C 16.4 °C 1021.9 hPa NNE 1.6 km/h 1.6 km/h 94% 0 mm WeatherDisplay:10.37 W/m2 OVC
06:30 17.5 °C 16.5 °C 1021.9 hPa NNE 1.6 km/h 1.6 km/h 94% 0 mm WeatherDisplay:10.37 W/m2 OVC
06:35 17.5 °C 16.5 °C 1021.9 hPa NNE 1.6 km/h 1.6 km/h 94% 0 mm WeatherDisplay:10.37 W/m2 OVC
06:40 17.5 °C 16.5 °C 1021.9 hPa NNE 1.6 km/h 1.6 km/h 94% 0 mm WeatherDisplay:10.37 W/m2 OVC
06:45 17.5 °C 16.5 °C 1021.9 hPa NNE 1.6 km/h 1.6 km/h 94% 0 mm WeatherDisplay:10.37 W/m2 OVC
06:50 17.6 °C 16.6 °C 1021.9 hPa NNE 1.6 km/h 1.6 km/h 94% 0 mm WeatherDisplay:10.37 W/m2 OVC
06:55 17.6 °C 16.6 °C 1021.6 hPa NNE 1.6 km/h 1.6 km/h 94% 0 mm WeatherDisplay:10.37 W/m2 OVC
07:00 17.6 °C 16.6 °C 1021.9 hPa NNE 1.6 km/h 1.6 km/h 94% 0 mm WeatherDisplay:10.37 W/m2 OVC
07:05 17.6 °C 16.6 °C 1021.9 hPa NNE 1.6 km/h 1.6 km/h 94% 0 mm WeatherDisplay:10.37 W/m2 OVC
07:10 17.6 °C 16.6 °C 1021.9 hPa NNE 1.6 km/h 1.6 km/h 94% 0 mm WeatherDisplay:10.37 W/m2 OVC
07:15 17.6 °C 16.6 °C 1021.9 hPa East 8 km/h 8 km/h 94% 0 mm WeatherDisplay:10.37 W/m2 OVC
07:25 17.7 °C 16.7 °C 1021.9 hPa East 8 km/h 8 km/h 94% 0 mm WeatherDisplay:10.37 W/m2 OVC
07:30 17.7 °C 16.7 °C 1021.9 hPa East 8 km/h 8 km/h 94% 0 mm WeatherDisplay:10.37 W/m2 OVC
07:35 17.8 °C 16.8 °C 1021.9 hPa East 8 km/h 8 km/h 94% 0 mm WeatherDisplay:10.37 W/m2 OVC
07:40 17.8 °C 16.8 °C 1021.9 hPa East 8 km/h 8 km/h 94% 0 mm WeatherDisplay:10.37 W/m2 OVC
07:45 17.9 °C 16.9 °C 1021.9 hPa East 8 km/h 8 km/h 94% 0 mm WeatherDisplay:10.37 W/m2 OVC
07:50 17.9 °C 16.9 °C 1021.9 hPa East 8 km/h 8 km/h 94% 0 mm WeatherDisplay:10.37 W/m2 OVC
07:55 17.9 °C 16.9 °C 1021.9 hPa East 8 km/h 8 km/h 94% 0 mm WeatherDisplay:10.37 W/m2 OVC
08:00 17.9 °C 16.9 °C 1021.6 hPa East 8 km/h 8 km/h 94% 0 mm WeatherDisplay:10.37 W/m2 OVC
08:05 17.9 °C 16.9 °C 1021.6 hPa East 8 km/h 8 km/h 94% 0 mm WeatherDisplay:10.37 W/m2 OVC
08:10 18 °C 17 °C 1021.9 hPa East 8 km/h 8 km/h 94% 0 mm WeatherDisplay:10.37 W/m2 OVC
08:15 18 °C 17 °C 1021.9 hPa East 8 km/h 8 km/h 94% 0 mm WeatherDisplay:10.37 W/m2 OVC
08:20 18.1 °C 17.1 °C 1021.9 hPa East 8 km/h 8 km/h 94% 0 mm WeatherDisplay:10.37 W/m2 OVC
08:25 18.1 °C 17.1 °C 1021.9 hPa ESE 4.8 km/h 8 km/h 94% 0 mm WeatherDisplay:10.37 W/m2 BKN
08:30 18.2 °C 17.2 °C 1022.2 hPa SE 4.8 km/h 4.8 km/h 94% 0 mm WeatherDisplay:10.37 W/m2 BKN
08:35 18.2 °C 17.2 °C 1022.2 hPa SE 4.8 km/h 4.8 km/h 94% 0 mm WeatherDisplay:10.37 W/m2 BKN
08:40 18.3 °C 17.3 °C 1022.2 hPa SE 4.8 km/h 4.8 km/h 94% 0 mm WeatherDisplay:10.37 W/m2 BKN
08:45 18.3 °C 17.3 °C 1022.2 hPa SSE 4.8 km/h 4.8 km/h 94% 0 mm WeatherDisplay:10.37 W/m2 OVC
08:50 18.4 °C 17.4 °C 1022.2 hPa SSE 4.8 km/h 4.8 km/h 94% 0 mm WeatherDisplay:10.37 W/m2 OVC
08:55 18.4 °C 17.4 °C 1022.6 hPa SSE 4.8 km/h 4.8 km/h 94% 0 mm WeatherDisplay:10.37 W/m2 OVC
09:00 18.6 °C 17.6 °C 1022.6 hPa SSE 4.8 km/h 4.8 km/h 94% 0 mm WeatherDisplay:10.37 W/m2 OVC
09:05 18.6 °C 17.6 °C 1022.6 hPa SSE 4.8 km/h 4.8 km/h 94% 0 mm WeatherDisplay:10.37 W/m2 OVC
09:10 18.7 °C 17.7 °C 1022.6 hPa SSE 4.8 km/h 4.8 km/h 94% 0 mm WeatherDisplay:10.37 W/m2 OVC
09:15 18.7 °C 17.7 °C 1022.6 hPa SSE 4.8 km/h 4.8 km/h 94% 0 mm WeatherDisplay:10.37 W/m2 OVC
09:20 18.8 °C 17.8 °C 1022.6 hPa SSE 4.8 km/h 4.8 km/h 94% 0 mm WeatherDisplay:10.37 W/m2 OVC
09:25 18.9 °C 17.9 °C 1022.6 hPa SSE 4.8 km/h 4.8 km/h 94% 0 mm WeatherDisplay:10.37 W/m2 OVC
09:30 18.9 °C 18 °C 1022.6 hPa SSE 4.8 km/h 4.8 km/h 94% 0 mm WeatherDisplay:10.37 W/m2 OVC
09:35 19 °C 17.9 °C 1022.6 hPa SSE 4.8 km/h 4.8 km/h 93% 0 mm WeatherDisplay:10.37 W/m2 OVC
09:40 19.1 °C 17.9 °C 1022.6 hPa SSE 4.8 km/h 4.8 km/h 93% 0 mm WeatherDisplay:10.37 W/m2 OVC
09:45 19.2 °C 18.1 °C 1022.6 hPa SSE 4.8 km/h 4.8 km/h 93% 0 mm WeatherDisplay:10.37 W/m2 OVC
09:50 19.3 °C 18.2 °C 1022.6 hPa SSE 4.8 km/h 4.8 km/h 93% 0 mm WeatherDisplay:10.37 W/m2 OVC
10:00 19.4 °C 18.3 °C 1022.9 hPa SSE 4.8 km/h 4.8 km/h 93% 0 mm WeatherDisplay:10.37 W/m2 OVC
10:05 19.5 °C 18.3 °C 1022.6 hPa SSE 4.8 km/h 4.8 km/h 93% 0 mm WeatherDisplay:10.37 W/m2 OVC
10:10 19.6 °C 18.2 °C 1022.6 hPa SSE 4.8 km/h 4.8 km/h 92% 0 mm WeatherDisplay:10.37 W/m2 OVC
10:15 19.6 °C 18.3 °C 1022.6 hPa SSE 4.8 km/h 4.8 km/h 92% 0 mm WeatherDisplay:10.37 W/m2 OVC
10:20 19.7 °C 18.4 °C 1022.6 hPa SSE 4.8 km/h 4.8 km/h 92% 0 mm WeatherDisplay:10.37 W/m2 OVC
10:25 19.9 °C 18.6 °C 1022.6 hPa SE 3.2 km/h 4.8 km/h 92% 0 mm WeatherDisplay:10.37 W/m2 OVC
10:30 20.1 °C 18.7 °C 1022.6 hPa SE 3.2 km/h 3.2 km/h 92% 0 mm WeatherDisplay:10.37 W/m2 OVC
10:40 20.3 °C 18.8 °C 1022.6 hPa SE 3.2 km/h 3.2 km/h 91% 0 mm WeatherDisplay:10.37 W/m2 OVC
10:45 20.5 °C 18.8 °C 1022.9 hPa SSE 4.8 km/h 4.8 km/h 90% 0 mm WeatherDisplay:10.37 W/m2 BKN
10:50 20.7 °C 18.9 °C 1022.9 hPa SSE 4.8 km/h 4.8 km/h 90% 0 mm WeatherDisplay:10.37 W/m2 BKN
10:55 20.8 °C 19.1 °C 1022.9 hPa SSE 4.8 km/h 4.8 km/h 90% 0 mm WeatherDisplay:10.37 W/m2 BKN
11:00 21 °C 19.3 °C 1022.9 hPa SSE 4.8 km/h 4.8 km/h 90% 0 mm WeatherDisplay:10.37 W/m2 BKN
11:05 21.2 °C 19.5 °C 1022.6 hPa SSE 4.8 km/h 4.8 km/h 90% 0 mm WeatherDisplay:10.37 W/m2 BKN
11:10 21.4 °C 19.7 °C 1022.6 hPa SSE 4.8 km/h 4.8 km/h 90% 0 mm WeatherDisplay:10.37 W/m2 BKN
11:15 21.7 °C 19.8 °C 1022.6 hPa SSE 8 km/h 8 km/h 89% 0 mm WeatherDisplay:10.37 W/m2 BKN
11:25 22.1 °C 19.8 °C 1022.6 hPa South 8 km/h 8 km/h 87% 0 mm WeatherDisplay:10.37 W/m2 BKN
11:30 22.3 °C 19.8 °C 1022.6 hPa South 8 km/h 8 km/h 86% 0 mm WeatherDisplay:10.37 W/m2 BKN
11:35 22.6 °C 20.1 °C 1022.6 hPa South 8 km/h 8 km/h 86% 0 mm WeatherDisplay:10.37 W/m2 BKN
11:40 22.9 °C 20.2 °C 1022.6 hPa South 8 km/h 8 km/h 85% 0 mm WeatherDisplay:10.37 W/m2 BKN
11:45 23.1 °C 20.2 °C 1022.2 hPa South 8 km/h 8 km/h 84% 0 mm WeatherDisplay:10.37 W/m2 BKN
11:50 23.2 °C 20.1 °C 1022.2 hPa South 8 km/h 8 km/h 83% 0 mm WeatherDisplay:10.37 W/m2 BKN
11:55 23.4 °C 20.1 °C 1022.2 hPa South 8 km/h 8 km/h 82% 0 mm WeatherDisplay:10.37 W/m2 BKN
12:00 23.6 °C 20.6 °C 1022.2 hPa South 8 km/h 8 km/h 83% 0 mm WeatherDisplay:10.37 W/m2 BKN
12:05 23.9 °C 20.6 °C 1022.2 hPa South 8 km/h 8 km/h 82% 0 mm WeatherDisplay:10.37 W/m2 BKN
12:10 23.9 °C 20.3 °C 1022.2 hPa South 8 km/h 8 km/h 80% 0 mm WeatherDisplay:10.37 W/m2 BKN
12:15 24 °C 20.7 °C 1021.9 hPa SSW 11.3 km/h 11.3 km/h 82% 0 mm WeatherDisplay:10.37 W/m2 BKN
12:20 24.1 °C 20.6 °C 1021.9 hPa SW 11.3 km/h 11.3 km/h 81% 0 mm WeatherDisplay:10.37 W/m2 BKN
12:25 24.2 °C 20.5 °C 1021.9 hPa SW 11.3 km/h 11.3 km/h 80% 0 mm WeatherDisplay:10.37 W/m2 BKN
12:30 24.3 °C 20.6 °C 1021.9 hPa SW 11.3 km/h 11.3 km/h 80% 0 mm WeatherDisplay:10.37 W/m2 BKN
12:35 24.4 °C 20.6 °C 1021.9 hPa SW 11.3 km/h 11.3 km/h 79% 0 mm WeatherDisplay:10.37 W/m2 BKN
12:40 24.7 °C 20.8 °C 1021.6 hPa SW 11.3 km/h 11.3 km/h 79% 0 mm WeatherDisplay:10.37 W/m2 BKN
12:45 24.9 °C 20.6 °C 1021.6 hPa SW 12.9 km/h 12.9 km/h 77% 0 mm WeatherDisplay:10.37 W/m2 BKN
12:50 25.1 °C 21 °C 1021.6 hPa SW 12.9 km/h 12.9 km/h 78% 0 mm WeatherDisplay:10.37 W/m2 BKN
12:55 25.4 °C 21.1 °C 1021.6 hPa SW 12.9 km/h 12.9 km/h 77% 0 mm WeatherDisplay:10.37 W/m2 BKN
13:00 25.7 °C 20.9 °C 1021.6 hPa SW 12.9 km/h 12.9 km/h 75% 0 mm WeatherDisplay:10.37 W/m2 BKN
13:05 25.7 °C 20.9 °C 1021.6 hPa SW 12.9 km/h 12.9 km/h 75% 0 mm WeatherDisplay:10.37 W/m2 BKN
13:10 25.7 °C 20.7 °C 1021.2 hPa SW 12.9 km/h 12.9 km/h 74% 0 mm WeatherDisplay:10.37 W/m2 BKN
13:15 25.8 °C 21 °C 1021.2 hPa SW 11.3 km/h 12.9 km/h 75% 0 mm WeatherDisplay:10.37 W/m2 BKN
13:20 25.9 °C 20.9 °C 1021.2 hPa SW 11.3 km/h 11.3 km/h 74% 0 mm WeatherDisplay:10.37 W/m2 BKN
13:25 25.8 °C 21.1 °C 1020.9 hPa SW 8 km/h 11.3 km/h 75% 0 mm WeatherDisplay:10.37 W/m2 BKN
13:30 26 °C 21.2 °C 1020.9 hPa SSW 8 km/h 8 km/h 75% 0 mm WeatherDisplay:10.37 W/m2 BKN
13:35 26 °C 21 °C 1020.9 hPa SSW 8 km/h 8 km/h 74% 0 mm WeatherDisplay:10.37 W/m2 BKN
13:40 26 °C 21.2 °C 1020.9 hPa SSW 8 km/h 8 km/h 75% 0 mm WeatherDisplay:10.37 W/m2 BKN
13:45 25.8 °C 21.1 °C 1020.9 hPa SSW 8 km/h 8 km/h 75% 0 mm WeatherDisplay:10.37 W/m2 BKN
13:50 25.8 °C 20.8 °C 1020.5 hPa SSW 8 km/h 8 km/h 74% 0 mm WeatherDisplay:10.37 W/m2 BKN
13:55 26 °C 21.2 °C 1020.5 hPa SSW 8 km/h 8 km/h 75% 0 mm WeatherDisplay:10.37 W/m2 BKN
14:00 26.1 °C 21.3 °C 1020.5 hPa SSW 8 km/h 8 km/h 75% 0 mm WeatherDisplay:10.37 W/m2 BKN
14:05 26.4 °C 21.2 °C 1020.2 hPa SSW 8 km/h 8 km/h 73% 0 mm WeatherDisplay:10.37 W/m2 BKN
14:10 26.8 °C 21.1 °C 1020.2 hPa SSW 8 km/h 8 km/h 71% 0 mm WeatherDisplay:10.37 W/m2 BKN
14:15 26.7 °C 21.1 °C 1020.2 hPa SSW 8 km/h 8 km/h 71% 0 mm WeatherDisplay:10.37 W/m2 BKN
14:20 26.6 °C 20.9 °C 1019.9 hPa SSW 8 km/h 8 km/h 71% 0 mm WeatherDisplay:10.37 W/m2 BKN
14:25 26.6 °C 20.9 °C 1019.9 hPa SW 11.3 km/h 11.3 km/h 71% 0 mm WeatherDisplay:10.37 W/m2 BKN
14:30 26.5 °C 21 °C 1019.9 hPa SW 11.3 km/h 11.3 km/h 72% 0 mm WeatherDisplay:10.37 W/m2 BKN
14:35 26.4 °C 20.9 °C 1019.5 hPa SW 11.3 km/h 11.3 km/h 72% 0 mm WeatherDisplay:10.37 W/m2 BKN
14:40 26.3 °C 21.3 °C 1019.5 hPa SW 11.3 km/h 11.3 km/h 74% 0 mm WeatherDisplay:10.37 W/m2 BKN
14:45 26.3 °C 20.8 °C 1019.2 hPa SW 11.3 km/h 11.3 km/h 72% 0 mm WeatherDisplay:10.37 W/m2 BKN
14:50 26.2 °C 21 °C 1019.2 hPa SW 11.3 km/h 11.3 km/h 73% 0 mm WeatherDisplay:10.37 W/m2 BKN
15:00 26.2 °C 21.4 °C 1019.2 hPa SW 11.3 km/h 11.3 km/h 75% 0 mm WeatherDisplay:10.37 W/m2 BKN
15:05 26.1 °C 21.6 °C 1019.2 hPa SW 11.3 km/h 11.3 km/h 76% 0 mm WeatherDisplay:10.37 W/m2 BKN
15:10 26.1 °C 21.1 °C 1019.2 hPa SW 11.3 km/h 11.3 km/h 74% 0 mm WeatherDisplay:10.37 W/m2 BKN
15:15 25.9 °C 21.2 °C 1018.8 hPa SSW 8 km/h 11.3 km/h 75% 0 mm WeatherDisplay:10.37 W/m2 -RA
15:20 25.8 °C 21.3 °C 1018.8 hPa South 8 km/h 8 km/h 76% 0 mm WeatherDisplay:10.37 W/m2 -RA
15:25 25.5 °C 21.6 °C 1018.8 hPa West 16.1 km/h 16.1 km/h 79% 0 mm WeatherDisplay:10.37 W/m2 -RA
15:30 25.2 °C 21.6 °C 1018.8 hPa West 16.1 km/h 16.1 km/h 80% 0 mm WeatherDisplay:10.37 W/m2 -RA
15:35 25.1 °C 21.8 °C 1018.8 hPa West 16.1 km/h 16.1 km/h 82% 0 mm WeatherDisplay:10.37 W/m2 -RA
15:40 24.9 °C 21.7 °C 1018.8 hPa West 16.1 km/h 16.1 km/h 82% 0 mm WeatherDisplay:10.37 W/m2 -RA
15:45 24.9 °C 21.4 °C 1018.5 hPa WSW 8 km/h 16.1 km/h 81% 0 mm WeatherDisplay:10.37 W/m2 BKN
15:50 24.9 °C 21.8 °C 1018.5 hPa SSW 8 km/h 8 km/h 83% 0 mm WeatherDisplay:10.37 W/m2 BKN
15:55 25.1 °C 21.6 °C 1018.5 hPa SSW 8 km/h 8 km/h 81% 0 mm WeatherDisplay:10.37 W/m2 BKN
16:00 25.2 °C 21.7 °C 1018.5 hPa SSW 8 km/h 8 km/h 81% 0 mm WeatherDisplay:10.37 W/m2 BKN
16:05 25.2 °C 21.7 °C 1018.2 hPa SSW 8 km/h 8 km/h 81% 0 mm WeatherDisplay:10.37 W/m2 BKN
16:10 25.3 °C 21 °C 1018.2 hPa SSW 8 km/h 8 km/h 77% 0 mm WeatherDisplay:10.37 W/m2 BKN
16:15 25.4 °C 21.3 °C 1018.2 hPa ESE 3.2 km/h 8 km/h 78% 0 mm WeatherDisplay:10.37 W/m2 BKN
16:20 25.5 °C 21.2 °C 1018.2 hPa NNE 3.2 km/h 3.2 km/h 77% 0 mm WeatherDisplay:10.37 W/m2 BKN
16:25 25.6 °C 21 °C 1018.2 hPa NNE 3.2 km/h 3.2 km/h 76% 0 mm WeatherDisplay:10.37 W/m2 BKN
16:30 25.6 °C 21.1 °C 1018.2 hPa NNE 3.2 km/h 3.2 km/h 76% 0 mm WeatherDisplay:10.37 W/m2 BKN
16:40 25.6 °C 21.1 °C 1017.8 hPa NNE 3.2 km/h 3.2 km/h 76% 0 mm WeatherDisplay:10.37 W/m2 BKN
16:45 25.5 °C 21.2 °C 1018.2 hPa NNE 3.2 km/h 3.2 km/h 77% 0 mm WeatherDisplay:10.37 W/m2 BKN
16:50 25.5 °C 21.4 °C 1017.8 hPa NNE 3.2 km/h 3.2 km/h 78% 0 mm WeatherDisplay:10.37 W/m2 BKN
16:55 25.4 °C 21.3 °C 1017.8 hPa NNE 3.2 km/h 3.2 km/h 78% 0 mm WeatherDisplay:10.37 W/m2 BKN
17:00 25.5 °C 21.4 °C 1017.8 hPa NNE 3.2 km/h 3.2 km/h 78% 0 mm WeatherDisplay:10.37 W/m2 BKN
17:05 25.5 °C 21.2 °C 1017.8 hPa NNE 3.2 km/h 3.2 km/h 77% 0 mm WeatherDisplay:10.37 W/m2 BKN
17:10 25.4 °C 21.6 °C 1017.8 hPa NNE 3.2 km/h 3.2 km/h 79% 0 mm WeatherDisplay:10.37 W/m2 BKN
17:15 25.4 °C 21.7 °C 1017.8 hPa WSW 8 km/h 8 km/h 80% 0 mm WeatherDisplay:10.37 W/m2 BKN
17:20 25.4 °C 21.7 °C 1017.8 hPa WSW 8 km/h 8 km/h 80% 0 mm WeatherDisplay:10.37 W/m2 BKN
17:25 25.4 °C 21.7 °C 1017.8 hPa WSW 8 km/h 8 km/h 80% 0 mm WeatherDisplay:10.37 W/m2 BKN
17:30 25.2 °C 21.5 °C 1017.8 hPa WSW 8 km/h 8 km/h 80% 0 mm WeatherDisplay:10.37 W/m2 BKN
17:35 24.9 °C 20.9 °C 1017.8 hPa WSW 8 km/h 8 km/h 78% 0 mm WeatherDisplay:10.37 W/m2 BKN
17:40 24.6 °C 20.1 °C 1017.8 hPa WSW 8 km/h 8 km/h 76% 0 mm WeatherDisplay:10.37 W/m2 BKN
17:45 24.3 °C 20 °C 1017.8 hPa WSW 8 km/h 8 km/h 77% 0 mm WeatherDisplay:10.37 W/m2 BKN
17:50 24.1 °C 20 °C 1017.8 hPa WSW 8 km/h 8 km/h 78% 0 mm WeatherDisplay:10.37 W/m2 BKN
17:55 23.8 °C 19.7 °C 1017.5 hPa WSW 8 km/h 8 km/h 78% 0 mm WeatherDisplay:10.37 W/m2 BKN
18:00 23.7 °C 19.6 °C 1017.5 hPa WSW 8 km/h 8 km/h 78% 0 mm WeatherDisplay:10.37 W/m2 BKN
18:10 23.6 °C 19.7 °C 1017.2 hPa WSW 8 km/h 8 km/h 79% 0 mm WeatherDisplay:10.37 W/m2 BKN
18:15 23.4 °C 19.8 °C 1017.2 hPa NNW 14.5 km/h 14.5 km/h 80% 0 mm WeatherDisplay:10.37 W/m2 BKN
18:20 23.3 °C 19.8 °C 1017.2 hPa North 14.5 km/h 14.5 km/h 81% 0 mm WeatherDisplay:10.37 W/m2 BKN
18:25 23.2 °C 19.7 °C 1017.2 hPa North 14.5 km/h 14.5 km/h 81% 0 mm WeatherDisplay:10.37 W/m2 BKN
18:30 22.9 °C 19.7 °C 1017.2 hPa North 14.5 km/h 14.5 km/h 82% 0 mm WeatherDisplay:10.37 W/m2 BKN
18:35 22.7 °C 19.5 °C 1017.2 hPa North 14.5 km/h 14.5 km/h 82% 0 mm WeatherDisplay:10.37 W/m2 BKN
18:40 22.6 °C 19.6 °C 1017.5 hPa North 14.5 km/h 14.5 km/h 83% 0 mm WeatherDisplay:10.37 W/m2 BKN
18:45 22.5 °C 19.4 °C 1017.2 hPa North 14.5 km/h 14.5 km/h 83% 0 mm WeatherDisplay:10.37 W/m2 BKN
18:50 22.3 °C 19.5 °C 1017.2 hPa North 14.5 km/h 14.5 km/h 84% 0 mm WeatherDisplay:10.37 W/m2 BKN
18:55 22.2 °C 19.3 °C 1017.2 hPa North 14.5 km/h 14.5 km/h 84% 0 mm WeatherDisplay:10.37 W/m2 BKN
19:00 22 °C 19.4 °C 1017.2 hPa North 14.5 km/h 14.5 km/h 85% 0 mm WeatherDisplay:10.37 W/m2 BKN
19:05 22 °C 19.3 °C 1017.2 hPa North 14.5 km/h 14.5 km/h 85% 0 mm WeatherDisplay:10.37 W/m2 BKN
19:10 21.9 °C 19.3 °C 1017.2 hPa North 14.5 km/h 14.5 km/h 85% 0 mm WeatherDisplay:10.37 W/m2 BKN
19:15 21.8 °C 19.2 °C 1017.2 hPa North 14.5 km/h 14.5 km/h 85% 0 mm WeatherDisplay:10.37 W/m2 SCT
19:20 21.7 °C 19.3 °C 1017.2 hPa North 14.5 km/h 14.5 km/h 86% 0 mm WeatherDisplay:10.37 W/m2 SCT
19:25 21.6 °C 19.2 °C 1017.2 hPa North 14.5 km/h 14.5 km/h 86% 0 mm WeatherDisplay:10.37 W/m2 SCT
19:30 21.5 °C 19.1 °C 1017.2 hPa North 14.5 km/h 14.5 km/h 86% 0 mm WeatherDisplay:10.37 W/m2 SCT
19:35 21.4 °C 18.9 °C 1017.2 hPa North 14.5 km/h 14.5 km/h 86% 0 mm WeatherDisplay:10.37 W/m2 SCT
19:40 21.3 °C 19.1 °C 1017.2 hPa North 14.5 km/h 14.5 km/h 87% 0 mm WeatherDisplay:10.37 W/m2 SCT
19:45 21.2 °C 18.9 °C 1017.2 hPa North 14.5 km/h 14.5 km/h 87% 0 mm WeatherDisplay:10.37 W/m2 SCT
19:50 21.1 °C 19.1 °C 1017.2 hPa North 14.5 km/h 14.5 km/h 88% 0 mm WeatherDisplay:10.37 W/m2 SCT
19:55 21.1 °C 19 °C 1017.2 hPa North 14.5 km/h 14.5 km/h 88% 0 mm WeatherDisplay:10.37 W/m2 SCT
20:00 20.9 °C 18.9 °C 1017.2 hPa North 14.5 km/h 14.5 km/h 88% 0 mm WeatherDisplay:10.37 W/m2 SCT
20:05 20.9 °C 18.8 °C 1017.2 hPa North 14.5 km/h 14.5 km/h 88% 0 mm WeatherDisplay:10.37 W/m2 SCT
20:10 20.8 °C 18.9 °C 1017.2 hPa North 14.5 km/h 14.5 km/h 89% 0 mm WeatherDisplay:10.37 W/m2 SCT
20:15 20.7 °C 18.8 °C 1017.2 hPa ENE 8 km/h 14.5 km/h 89% 0 mm WeatherDisplay:10.37 W/m2 FEW
20:20 20.7 °C 18.8 °C 1017.2 hPa SSE 8 km/h 8 km/h 89% 0 mm WeatherDisplay:10.37 W/m2 FEW
20:25 20.6 °C 18.7 °C 1017.5 hPa SSE 8 km/h 8 km/h 89% 0 mm WeatherDisplay:10.37 W/m2 FEW
20:30 20.6 °C 18.8 °C 1017.5 hPa SSE 8 km/h 8 km/h 90% 0 mm WeatherDisplay:10.37 W/m2 FEW
20:40 20.5 °C 19 °C 1017.8 hPa SSE 8 km/h 8 km/h 91% 0 mm WeatherDisplay:10.37 W/m2 FEW
20:45 20.5 °C 18.9 °C 1017.8 hPa SSE 8 km/h 8 km/h 91% 0 mm WeatherDisplay:10.37 W/m2 FEW
20:50 20.4 °C 18.9 °C 1017.8 hPa SSE 8 km/h 8 km/h 91% 0 mm WeatherDisplay:10.37 W/m2 FEW
20:55 20.4 °C 18.9 °C 1018.2 hPa SSE 8 km/h 8 km/h 91% 0 mm WeatherDisplay:10.37 W/m2 FEW
21:00 20.4 °C 18.9 °C 1018.2 hPa SSE 8 km/h 8 km/h 91% 0 mm WeatherDisplay:10.37 W/m2 FEW
21:05 20.4 °C 18.9 °C 1018.2 hPa SSE 8 km/h 8 km/h 91% 0 mm WeatherDisplay:10.37 W/m2 FEW
21:10 20.4 °C 18.9 °C 1018.2 hPa SSE 8 km/h 8 km/h 91% 0 mm WeatherDisplay:10.37 W/m2 FEW
21:15 20.3 °C 18.8 °C 1018.2 hPa ENE 3.2 km/h 8 km/h 91% 0 mm WeatherDisplay:10.37 W/m2 FEW
21:20 20.2 °C 18.7 °C 1018.2 hPa NNW 3.2 km/h 3.2 km/h 91% 0 mm WeatherDisplay:10.37 W/m2 FEW
21:25 20.2 °C 18.7 °C 1018.5 hPa NNW 3.2 km/h 3.2 km/h 91% 0 mm WeatherDisplay:10.37 W/m2 FEW
21:30 20.2 °C 18.7 °C 1018.5 hPa NNW 3.2 km/h 3.2 km/h 91% 0 mm WeatherDisplay:10.37 W/m2 FEW
21:40 20.1 °C 18.6 °C 1018.5 hPa NNW 3.2 km/h 3.2 km/h 91% 0 mm WeatherDisplay:10.37 W/m2 FEW
21:45 20.1 °C 18.6 °C 1018.5 hPa NNW 3.2 km/h 3.2 km/h 91% 0 mm WeatherDisplay:10.37 W/m2 FEW
21:50 20.1 °C 18.6 °C 1018.2 hPa NNW 3.2 km/h 3.2 km/h 91% 0 mm WeatherDisplay:10.37 W/m2 FEW
21:55 20 °C 18.5 °C 1018.2 hPa NNW 3.2 km/h 3.2 km/h 91% 0 mm WeatherDisplay:10.37 W/m2 FEW
22:00 19.9 °C 18.4 °C 1018.2 hPa NNW 3.2 km/h 3.2 km/h 91% 0 mm WeatherDisplay:10.37 W/m2 FEW
22:05 19.9 °C 18.4 °C 1018.2 hPa NNW 3.2 km/h 3.2 km/h 91% 0 mm WeatherDisplay:10.37 W/m2 FEW
22:10 19.9 °C 18.6 °C 1018.5 hPa NNW 3.2 km/h 3.2 km/h 92% 0 mm WeatherDisplay:10.37 W/m2 FEW
22:15 19.8 °C 18.5 °C 1018.5 hPa SSE 3.2 km/h 3.2 km/h 92% 0 mm WeatherDisplay:10.37 W/m2 FEW
22:20 19.8 °C 18.4 °C 1018.5 hPa SSE 3.2 km/h 3.2 km/h 92% 0 mm WeatherDisplay:10.37 W/m2 FEW
22:25 19.8 °C 18.4 °C 1018.5 hPa SSE 3.2 km/h 3.2 km/h 92% 0 mm WeatherDisplay:10.37 W/m2 FEW
22:30 19.7 °C 18.4 °C 1018.5 hPa SSE 3.2 km/h 3.2 km/h 92% 0 mm WeatherDisplay:10.37 W/m2 FEW
22:40 19.7 °C 18.3 °C 1018.5 hPa SSE 3.2 km/h 3.2 km/h 92% 0 mm WeatherDisplay:10.37 W/m2 FEW
22:45 19.6 °C 18.3 °C 1018.5 hPa SSE 3.2 km/h 3.2 km/h 92% 0 mm WeatherDisplay:10.37 W/m2 FEW
22:50 19.6 °C 18.3 °C 1018.5 hPa SSE 3.2 km/h 3.2 km/h 92% 0 mm WeatherDisplay:10.37 W/m2 FEW
22:55 19.6 °C 18.3 °C 1018.5 hPa SSE 3.2 km/h 3.2 km/h 92% 0 mm WeatherDisplay:10.37 W/m2 FEW
23:00 19.6 °C 18.3 °C 1018.5 hPa SSE 3.2 km/h 3.2 km/h 92% 0 mm WeatherDisplay:10.37 W/m2 FEW
23:05 19.7 °C 18.3 °C 1018.2 hPa SSE 3.2 km/h 3.2 km/h 92% 0 mm WeatherDisplay:10.37 W/m2 FEW
23:10 19.7 °C 18.4 °C 1018.2 hPa SSE 3.2 km/h 3.2 km/h 92% 0 mm WeatherDisplay:10.37 W/m2 FEW
23:20 19.8 °C 18.6 °C 1018.2 hPa SSE 3.2 km/h 3.2 km/h 93% 0 mm WeatherDisplay:10.37 W/m2 BKN
23:25 19.8 °C 18.7 °C 1018.2 hPa SSE 3.2 km/h 3.2 km/h 93% 0 mm WeatherDisplay:10.37 W/m2 BKN
23:30 19.9 °C 18.7 °C 1018.2 hPa SSE 3.2 km/h 3.2 km/h 93% 0 mm WeatherDisplay:10.37 W/m2 BKN
23:40 19.9 °C 18.8 °C 1017.8 hPa SSE 3.2 km/h 3.2 km/h 93% 0 mm WeatherDisplay:10.37 W/m2 BKN
23:45 19.9 °C 18.8 °C 1017.8 hPa SSE 3.2 km/h 3.2 km/h 93% 0 mm WeatherDisplay:10.37 W/m2 BKN
23:50 19.9 °C 18.8 °C 1017.8 hPa SSE 3.2 km/h 3.2 km/h 93% 0 mm WeatherDisplay:10.37 W/m2 BKN
23:55 20 °C 18.7 °C 1017.8 hPa SSE 3.2 km/h 3.2 km/h 92% 0 mm WeatherDisplay:10.37 W/m2 BKN
Piedmont Bend
Compliments of Weather Underground - 4 mb